Regional Weather Roundup
Issued by NWS

Home | Current Version | Previous Version | Graphics & Text | Print | Product List | Glossary On
Versions: 1 2 3 4 5 6 7 8 9 10 11 12 13 14 15 16 17 18 19 20 21 22 23 24 25 26 27 28 29 30 31 32 33 34 35 36 37 38 39 40 41 42 43 44 45 46 47 48 49 50
000
ASUS43 KOAX 230610
RWRNE

WEATHER ROUNDUP FOR NEBRASKA
NATIONAL WEATHER SERVICE OMAHA NE
100 AM CDT THU OCT 23 2014

NOTES: SATELLITE DATA IS BEING USED TO AUGMENT CLOUD COVER ABOVE
       12000 FEET.
       "FAIR" INDICATES FEW OR NO CLOUDS BELOW 12,000 FEET WITH NO
       SIGNIFICANT WEATHER AND/OR OBSTRUCTIONS TO VISIBILITY.

  * THESE STATIONS DO NOT REPORT WEATHER SUCH AS RAIN...SNOW OR FOG.

NEZ001>004-019>022-054>056-230700-
NEBRASKA PANHANDLE

CITY           SKY/WX    TMP DP  RH WIND       PRES   REMARKS
SCOTTSBLUFF    CLEAR     36  30  79 NE3       30.10S
6HR MIN TEMP:  36; 6HR MAX TEMP:  61;

ALLIANCE       PTCLDY    34  27  75 CALM      30.08S
6HR MIN TEMP:  31; 6HR MAX TEMP:  54;

CHADRON        CLEAR     32  28  85 CALM      30.05F
6HR MIN TEMP:  32; 6HR MAX TEMP:  60;

KIMBALL        CLEAR     40  35  82 SW8       30.12F WCI  35
SIDNEY         CLEAR     45  35  68 W7        30.12S
6HR MIN TEMP:  43; 6HR MAX TEMP:  56;

$$

NEZ057>060-069>072-079>082-230700-
SOUTHWEST NEBRASKA

CITY           SKY/WX    TMP DP  RH WIND       PRES   REMARKS
NORTH PLATTE   FOG       43  42  97 CALM      30.07S VSB 1/4
6HR MIN TEMP:  43; 6HR MAX TEMP:  58;

IMPERIAL       CLEAR     46  34  62 W3        30.08F
6HR MIN TEMP:  44; 6HR MAX TEMP:  61;

LEXINGTON      FOG       49  48  97 CALM      30.07S VSB<1/4
MCCOOK         CLEAR     48  46  93 CALM      30.07S
6HR MIN TEMP:  44; 6HR MAX TEMP:  63;

OGALLALA       CLEAR     40  35  81 W3        30.08F
$$

NEZ005>010-023>029-035>040-094-230700-
NORTH CENTRAL NEBRASKA

CITY           SKY/WX    TMP DP  RH WIND       PRES   REMARKS
VALENTINE      CLEAR     42  39  89 SW9       30.05S
6HR MIN TEMP:  39; 6HR MAX TEMP:  58;

AINSWORTH      CLEAR     42  39  89 SW5       30.05S
BROKEN BOW     FOG       44  43  96 CALM      30.06S VSB 1/4
6HR MIN TEMP:  44; 6HR MAX TEMP:  58;

O`NEILL        FOG       44  44 100 SW5       30.05R VSB 1/2
ORD            FOG       42  42 100 NW3       30.05S VSB 1/4
6HR MIN TEMP:  41; 6HR MAX TEMP:  58;

THEDFORD       CLEAR     41  40  97 CALM      30.08S
$$

NEZ041-046>049-061>064-073>077-083>087-230700-
SOUTH CENTRAL NEBRASKA

CITY           SKY/WX    TMP DP  RH WIND       PRES   REMARKS
GRAND ISLAND   FOG       55  54  96 NW3       30.05F VSB 1/4
6HR MIN TEMP:  54; 6HR MAX TEMP:  62;

AURORA         CLOUDY    60  60 100 CALM      30.05S FOG
HASTINGS       FOG       55  53  93 NW3       30.05S VSB 1/4
6HR MIN TEMP:  54; 6HR MAX TEMP:  62;

HEBRON         MOCLDY    60  56  89 S6        30.03F
HOLDREGE       FOG       50  49  97 CALM      30.06S VSB<1/4
KEARNEY *      CLOUDY    50  48  93 W5        30.07S VSB<1/4
YORK           CLOUDY    57  57 100 CALM      30.04F FOG
$$

NEZ011>018-030>034-042>045-230700-
NORTHEAST NEBRASKA

CITY           SKY/WX    TMP DP  RH WIND       PRES   REMARKS
NORFOLK        CLOUDY    55  54  96 W5        30.04R
6HR MIN TEMP:  55; 6HR MAX TEMP:  60; 6HR PCP: TRACE;

ALBION         FOG       47  46  93 CALM      30.05S VSB 1/4
BLAIR          CLOUDY    62  60  91 S10       30.01F
COLUMBUS *     CLOUDY    59  55  88 N7        30.04S
FREMONT        CLOUDY    62  59  90 SW7       30.02S
TEKAMAH        LGT RAIN  62  60  93 SE5       30.01F
6HR MIN TEMP:  62; 6HR MAX TEMP:  64; 6HR PCP:  0.30;

WAYNE          CLOUDY    57  56  96 NW3       30.03S
$$

NEZ050>053-065>068-078-088>093-230700-
SOUTHEAST NEBRASKA

CITY           SKY/WX    TMP DP  RH WIND       PRES   REMARKS
LINCOLN        CLOUDY    62  58  86 S8        30.03S
6HR MIN TEMP:  62; 6HR MAX TEMP:  64; 6HR PCP:  0.41;

OMAHA EPPLEY   CLOUDY    63  60  90 S12       30.03F
6HR MIN TEMP:  63; 6HR MAX TEMP:  71; 6HR PCP:  1.02;

BEATRICE       CLOUDY    61  59  94 S8        30.03F
FALLS CITY     RAIN      61  60  97 SE12      30.06F FOG
6HR MIN TEMP:  61; 6HR MAX TEMP:  68; 6HR PCP:  0.21;

NEBRASKA CITY  CLOUDY    61  61 100 S5        30.05F
PLATTSMOUTH    CLOUDY    61  59  94 SE6       30.04F FOG
$$

NEZ044-045-051>053-067-230700-
OMAHA AREA

CITY           SKY/WX    TMP DP  RH WIND       PRES   REMARKS
OMAHA EPPLEY   CLOUDY    63  60  90 S12       30.03F
6HR MIN TEMP:  63; 6HR MAX TEMP:  71; 6HR PCP:  1.02;

BLAIR          CLOUDY    62  60  91 S10       30.01F
FREMONT        CLOUDY    62  59  90 SW7       30.02S
MILLARD        CLOUDY    63  60  90 S5        30.03S
OFFUTT AFB     CLOUDY    62  62 100 SE10      30.02F
PLATTSMOUTH    CLOUDY    61  59  94 SE6       30.04F FOG
WAHOO          CLOUDY    62  58  85 S10G16    30.01F
$$



USA.gov is the U.S. government's official web portal to all federal, state and local government web resources and services.